Hourly Weather Lukowiec

Today, 15 May, Saturday

Time Temperature Precipitation Wind Pressure Humidity
00:00 +10°C° 0 mm 3 mps 742 mmHg 93%
01:00 +9°C° 0 mm 3 mps 743 mmHg 94%
02:00 +9°C° 0 mm 3 mps 743 mmHg 95%
03:00 +8°C° 0 mm 3 mps 743 mmHg 95%
04:00 +8°C° 0 mm 2 mps 743 mmHg 96%
05:00 +9°C° 0 mm 3 mps 744 mmHg 90%
06:00 +11°C° 0 mm 3 mps 744 mmHg 85%
07:00 +12°C° 0 mm 4 mps 744 mmHg 80%
08:00 +14°C° 0.1 mm 3 mps 744 mmHg 74%
09:00 +16°C° 0.1 mm 3 mps 744 mmHg 68%
10:00 +17°C° 0.1 mm 3 mps 744 mmHg 62%
11:00 +18°C° 0.1 mm 3 mps 744 mmHg 59%
12:00 +18°C° 0.1 mm 2 mps 744 mmHg 57%
13:00 +19°C° 0.1 mm 2 mps 744 mmHg 55%
14:00 +19°C° 0.1 mm 2 mps 744 mmHg 58%
15:00 +18°C° 0.1 mm 2 mps 744 mmHg 61%
16:00 +19°C° 0.1 mm 1 mps 744 mmHg 63%
17:00 +17°C° 0.1 mm 2 mps 743 mmHg 69%
18:00 +16°C° 0.1 mm 2 mps 743 mmHg 74%
19:00 +15°C° 0.1 mm 2 mps 743 mmHg 80%
20:00 +14°C° 0.1 mm 2 mps 743 mmHg 82%
21:00 +13°C° 0.1 mm 2 mps 743 mmHg 85%
22:00 +13°C° 0.1 mm 2 mps 743 mmHg 87%
23:00 +12°C° 0 mm 2 mps 743 mmHg 88%

Tomorrow, 16 May, Sunday

Time Temperature Precipitation Wind Pressure Humidity
00:00 +12°C° 0 mm 2 mps 743 mmHg 89%
01:00 +11°C° 0 mm 3 mps 743 mmHg 90%
02:00 +12°C° 0 mm 2 mps 742 mmHg 91%
03:00 +12°C° 0 mm 2 mps 742 mmHg 92%
04:00 +10°C° 0 mm 2 mps 742 mmHg 93%
05:00 +13°C° 0 mm 2 mps 742 mmHg 88%
06:00 +13°C° 0 mm 3 mps 742 mmHg 84%
07:00 +14°C° 0 mm 3 mps 742 mmHg 80%
08:00 +17°C° 0.1 mm 3 mps 742 mmHg 74%
09:00 +18°C° 0.1 mm 3 mps 742 mmHg 68%
10:00 +19°C° 0.1 mm 3 mps 742 mmHg 63%
11:00 +19°C° 0.6 mm 4 mps 741 mmHg 66%
12:00 +18°C° 0.6 mm 4 mps 741 mmHg 69%
13:00 +17°C° 0.6 mm 5 mps 741 mmHg 72%
14:00 +16°C° 0.4 mm 5 mps 741 mmHg 78%
15:00 +15°C° 0.4 mm 4 mps 741 mmHg 83%
16:00 +13°C° 0.4 mm 4 mps 741 mmHg 89%
17:00 +13°C° 0 mm 4 mps 741 mmHg 90%
18:00 +12°C° 0 mm 3 mps 741 mmHg 91%
19:00 +13°C° 0 mm 2 mps 742 mmHg 92%
20:00 +12°C° 0 mm 2 mps 742 mmHg 92%
21:00 +12°C° 0 mm 2 mps 742 mmHg 93%
22:00 +12°C° 0 mm 2 mps 742 mmHg 94%
23:00 +10°C° 0 mm 2 mps 742 mmHg 94%

Day after tomorrow, 17 May, Monday

Time Temperature Precipitation Wind Pressure Humidity
00:00 +9°C° 0 mm 2 mps 742 mmHg 95%
01:00 +10°C° 0 mm 1 mps 742 mmHg 95%
02:00 +9°C° 0 mm 1 mps 742 mmHg 95%
03:00 +9°C° 0 mm 1 mps 742 mmHg 94%
04:00 +9°C° 0 mm 1 mps 742 mmHg 94%
05:00 +11°C° 0 mm 1 mps 742 mmHg 89%
06:00 +12°C° 0 mm 1 mps 742 mmHg 85%
07:00 +14°C° 0 mm 1 mps 742 mmHg 80%
08:00 +15°C° 0.1 mm 1 mps 742 mmHg 75%
09:00 +16°C° 0.1 mm 1 mps 742 mmHg 69%
10:00 +19°C° 0.1 mm 1 mps 742 mmHg 64%
11:00 +19°C° 0.2 mm 1 mps 741 mmHg 63%
12:00 +18°C° 0.2 mm 2 mps 741 mmHg 61%
13:00 +19°C° 0.2 mm 2 mps 741 mmHg 60%
14:00 +17°C° 0.5 mm 3 mps 741 mmHg 69%
15:00 +15°C° 0.5 mm 4 mps 741 mmHg 78%
16:00 +13°C° 0.5 mm 5 mps 741 mmHg 87%
17:00 +12°C° 1 mm 4 mps 741 mmHg 90%
18:00 +12°C° 1 mm 4 mps 741 mmHg 93%
19:00 +11°C° 1 mm 3 mps 741 mmHg 96%
20:00 +11°C° 0.8 mm 3 mps 741 mmHg 96%
21:00 +11°C° 0.8 mm 3 mps 741 mmHg 96%
22:00 +10°C° 0.8 mm 2 mps 741 mmHg 96%
23:00 +10°C° 0 mm 3 mps 741 mmHg 96%

18 May, Tuesday

Time Temperature Precipitation Wind Pressure Humidity
00:00 +9°C° 0 mm 3 mps 741 mmHg 96%
01:00 +9°C° 0 mm 3 mps 741 mmHg 96%
02:00 +7°C° 0 mm 4 mps 741 mmHg 96%
03:00 +7°C° 0 mm 4 mps 741 mmHg 95%
04:00 +7°C° 0 mm 4 mps 742 mmHg 95%
05:00 +8°C° 0 mm 5 mps 742 mmHg 91%
06:00 +9°C° 0 mm 5 mps 742 mmHg 86%
07:00 +10°C° 0 mm 6 mps 742 mmHg 82%
08:00 +11°C° 0.1 mm 6 mps 742 mmHg 76%
09:00 +13°C° 0.1 mm 6 mps 743 mmHg 71%
10:00 +14°C° 0.1 mm 6 mps 743 mmHg 65%
11:00 +14°C° 0.3 mm 6 mps 743 mmHg 67%
12:00 +14°C° 0.3 mm 6 mps 743 mmHg 69%
13:00 +14°C° 0.3 mm 6 mps 743 mmHg 71%
14:00 +14°C° 0.2 mm 6 mps 743 mmHg 72%
15:00 +14°C° 0.2 mm 5 mps 743 mmHg 72%
16:00 +14°C° 0.2 mm 5 mps 743 mmHg 73%
17:00 +13°C° 0.1 mm 5 mps 743 mmHg 77%
18:00 +12°C° 0.1 mm 4 mps 744 mmHg 81%
19:00 +11°C° 0.1 mm 4 mps 744 mmHg 85%
20:00 +10°C° 0 mm 4 mps 744 mmHg 88%
21:00 +9°C° 0 mm 3 mps 744 mmHg 91%
22:00 +8°C° 0 mm 3 mps 745 mmHg 94%
23:00 +8°C° 0 mm 3 mps 745 mmHg 94%

19 May, Wednesday

Time Temperature Precipitation Wind Pressure Humidity
00:00 +8°C° 0 mm 3 mps 745 mmHg 95%
01:00 +7°C° 0 mm 3 mps 746 mmHg 95%
02:00 +7°C° 0 mm 3 mps 746 mmHg 96%
03:00 +7°C° 0 mm 3 mps 746 mmHg 96%
04:00 +7°C° 0 mm 3 mps 746 mmHg 96%
05:00 +7°C° 0 mm 4 mps 746 mmHg 92%
06:00 +9°C° 0 mm 5 mps 747 mmHg 87%
07:00 +10°C° 0 mm 5 mps 747 mmHg 82%
08:00 +12°C° 0.3 mm 5 mps 747 mmHg 78%
09:00 +13°C° 0.3 mm 5 mps 747 mmHg 74%
10:00 +14°C° 0.3 mm 5 mps 747 mmHg 69%
11:00 +14°C° 0.3 mm 5 mps 747 mmHg 71%
12:00 +13°C° 0.3 mm 5 mps 747 mmHg 72%
13:00 +13°C° 0.3 mm 5 mps 747 mmHg 74%
14:00 +13°C° 0.3 mm 5 mps 747 mmHg 75%
15:00 +13°C° 0.3 mm 5 mps 747 mmHg 75%
16:00 +13°C° 0.3 mm 5 mps 747 mmHg 76%
17:00 +12°C° 0.3 mm 4 mps 747 mmHg 80%
18:00 +11°C° 0.3 mm 3 mps 748 mmHg 84%
19:00 +10°C° 0.3 mm 3 mps 748 mmHg 88%
20:00 +9°C° 0 mm 3 mps 748 mmHg 90%
21:00 +9°C° 0 mm 3 mps 748 mmHg 91%
22:00 +8°C° 0 mm 3 mps 748 mmHg 93%
23:00 +7°C° 0 mm 3 mps 749 mmHg 93%

20 May, Thursday

Time Temperature Precipitation Wind Pressure Humidity
00:00 +7°C° 0 mm 3 mps 749 mmHg 94%
01:00 +5°C° 0 mm 3 mps 749 mmHg 95%
02:00 +5°C° 0 mm 3 mps 749 mmHg 94%
03:00 +5°C° 0 mm 3 mps 749 mmHg 94%
04:00 +4°C° 0 mm 3 mps 749 mmHg 94%
05:00 +7°C° 0 mm 3 mps 750 mmHg 89%
06:00 +8°C° 0 mm 4 mps 750 mmHg 84%
07:00 +11°C° 0 mm 4 mps 750 mmHg 80%
08:00 +12°C° 0.2 mm 4 mps 750 mmHg 74%
09:00 +13°C° 0.2 mm 5 mps 750 mmHg 68%
10:00 +14°C° 0.2 mm 5 mps 750 mmHg 62%
11:00 +14°C° 0.1 mm 5 mps 750 mmHg 63%
12:00 +14°C° 0.1 mm 4 mps 750 mmHg 63%
13:00 +14°C° 0.1 mm 4 mps 750 mmHg 63%
14:00 +14°C° 0.1 mm 4 mps 749 mmHg 62%
15:00 +15°C° 0.1 mm 4 mps 749 mmHg 60%
16:00 +15°C° 0.1 mm 4 mps 749 mmHg 59%
17:00 +14°C° 0.1 mm 3 mps 749 mmHg 65%
18:00 +12°C° 0.1 mm 3 mps 749 mmHg 72%
19:00 +12°C° 0.1 mm 2 mps 749 mmHg 79%
20:00 +10°C° 0 mm 2 mps 749 mmHg 81%
21:00 +10°C° 0 mm 2 mps 749 mmHg 83%
22:00 +9°C° 0 mm 3 mps 749 mmHg 85%
23:00 +9°C° 0 mm 3 mps 748 mmHg 85%
Show more

We Need Your Consent

Meteoprog and our Service Providers may store and access personal data such as cookies, device identifiers or other similar technologies on your device and process such data to personalise content and ads, as well as provide social media features and to analyse the traffic.

  • Store and/or access information on your device

    Cookies, device identifiers or other information can be stored or accessed on your device for the purposes indicated above.

  • Personalised ads and content, ad and content measurement, audience insights, and products development

    Ads and content can be personalised based on a profile. More data can be added to better personalise ads and content. Ad and content performance can be measured. Insights about the audience who saw the ads and content can be derived. Such data can be used to develop or improve user’s experience, systems and software.

By clicking ‘I Agree’ you will allow the use of indicated cookies, device identifiers, web beacons or other similar technologies. Your settings can be changed in the browser on your device.

For certain purposes, legitimate interests may be relied on, rather than consent. You can read more about this in our Privacy and Cookie Policy.